sat.trackr.live / text

‹ back to catalog

STARLINK-31264

NORAD 58845 · 2024-017V

PAYLOAD ACTIVE UNKNOWN

§ Identity

Operator
Country
US
Launch date
2024-01-24
Launch site
AFWTR
Launch vehicle
Mass (kg)
RCS (m²)

Purposes: comms

External: N2YO · Heavens-Above · Gunter

§ Orbital elements

Epoch: 2026-05-25T03:39:15.220800Z

Period
94.11 min
Inclination
53.1606°
Eccentricity
0.0001190
Mean motion
15.30190001 rev/d
Perigee alt
474.4 km
Apogee alt
476.1 km
Semi-major
6,853.4 km
B*
4.4662e-5
RAAN
298.7391°
Arg perigee
94.4565°
Mean anomaly
265.6571°
Rev number
13,048

§ Raw data

STARLINK-312641 58845U 24017V   26145.15225950  .00000963  00000+0  44662-4 0  99942 58845  53.1606 298.7391 0001190  94.4565 265.6571 15.30190001130484

JSON: /api/v1/satellites/58845 · /tle

For live sub-satellite position, see the globe view (requires WebGL).

§ Visibility from observer

Set your observer location to see the next 7 days of passes ≥ 10°. The values pass through the URL so the page stays shareable.

No JS? Fill the form by hand. The geolocation button needs JavaScript.